Tarawa Terrace, NC

2:17 AM EDT on September 26, 2016 (GMT -0400)
New River Marine Corps Air Station

Weather History for KNCA - May, 2013

Change the Weather History Date:

Monday, May 13, 2013

  Actual Average Record
Temperature  
Mean Temperature 60 °F -  
Max Temperature 71 °F 77 °F 93 °F (2000)
Min Temperature 50 °F 56 °F 48 °F (2008)
Degree Days  
Heating Degree Days 4    
Growing Degree Days 10 (Base 50)    
Moisture  
Dew Point 39 °F    
Average Humidity 46    
Maximum Humidity 80    
Minimum Humidity 26    
Precipitation  
Precipitation 0.00 in - - ()
Sea Level Pressure  
Sea Level Pressure 30.07 in    
Wind  
Wind Speed 10 mph (North)    
Max Wind Speed 17 mph    
Max Gust Speed 23 mph    
Visibility 10 miles    
Events      
Averages and records for this station are not official NWS values.
T = Trace of Precipitation, MM = Missing Value Source: NWS Daily Summary

Daily Weather History Graph

Daily Weather History Graph

Search for Another Location

Airport or City:

Trip Planner

Search our weather history database for the weather conditions in past years. The results will help you decide how hot, cold, wet, or windy it might be!

Date:

Astronomy

May. 13, 2013 Rise Set
Actual Time 6:08 AM EDT 8:04 PM EDT
Civil Twilight 5:40 AM EDT 8:32 PM EDT
Nautical Twilight 5:06 AM EDT 9:06 PM EDT
Astronomical Twilight 4:30 AM EDT 9:42 PM EDT
Moon 8:53 AM EDT (5/13) 11:12 PM EDT (5/13)
Length of Visible Light 14h 51m
Length of Day
13h 56m
Waxing Crescent, 12% of the Moon is Illuminated
May 13
Waxing Crescent
May 18
First Quarter
May 25
Full
May 31
Last Quarter
Jun 8
New

Hourly Weather History & Observations

Time (EDT) Temp. Dew Point Humidity Pressure Visibility Wind Dir Wind Speed Gust Speed Precip Events Conditions
12:56 AM 62.1 °F 42.1 °F 48% 30.02 in 10.0 mi North 9.2 mph - N/A   Scattered Clouds
1:56 AM 61.0 °F 39.9 °F 46% 30.03 in 10.0 mi North 9.2 mph - N/A   Overcast
2:56 AM 59.0 °F 39.0 °F 48% 30.02 in 10.0 mi North 6.9 mph - N/A   Scattered Clouds
3:56 AM 57.9 °F 37.9 °F 47% 30.03 in 10.0 mi North 9.2 mph - N/A   Partly Cloudy
4:56 AM 55.9 °F 37.9 °F 51% 30.04 in 10.0 mi NNW 6.9 mph - N/A   Mostly Cloudy
5:56 AM 55.0 °F 37.0 °F 51% 30.05 in 10.0 mi North 9.2 mph - N/A   Scattered Clouds
6:56 AM 55.9 °F 37.9 °F 51% 30.06 in 10.0 mi North 12.7 mph - N/A   Mostly Cloudy
7:56 AM 57.9 °F 42.1 °F 56% 30.07 in 10.0 mi North 10.4 mph - N/A   Clear
8:56 AM 60.1 °F 43.0 °F 53% 30.09 in 9.0 mi North 15.0 mph - N/A   Clear
9:56 AM 61.0 °F 42.1 °F 50% 30.09 in 10.0 mi North 15.0 mph 20.7 mph N/A   Scattered Clouds
10:56 AM 64.9 °F 43.0 °F 45% 30.10 in 10.0 mi North 13.8 mph - N/A   Scattered Clouds
11:56 AM 64.9 °F 41.0 °F 42% 30.10 in 10.0 mi North 15.0 mph - N/A   Clear
12:56 PM 66.9 °F 41.0 °F 39% 30.10 in 10.0 mi North 13.8 mph - N/A   Partly Cloudy
1:56 PM 68.0 °F 39.9 °F 36% 30.07 in 9.0 mi NNW 17.3 mph 21.9 mph N/A   Clear
2:56 PM 70.0 °F 37.0 °F 30% 30.06 in 9.0 mi North 13.8 mph 19.6 mph N/A   Clear
4:56 PM 70.0 °F 33.1 °F 26% 30.02 in 10.0 mi NW 15.0 mph 23.0 mph N/A   Clear
5:56 PM 69.1 °F 33.1 °F 26% 30.03 in 10.0 mi NW 17.3 mph 23.0 mph N/A   Clear
6:56 PM 66.9 °F 32.0 °F 27% 30.04 in 10.0 mi NW 11.5 mph - N/A   Clear
7:56 PM 64.0 °F 33.1 °F 31% 30.07 in 10.0 mi NNW 8.1 mph - N/A   Clear
8:56 PM 62.1 °F 34.0 °F 35% 30.10 in 10.0 mi North 6.9 mph - N/A   Clear
9:56 PM 55.0 °F 41.0 °F 59% 30.14 in 10.0 mi Calm Calm - N/A   Clear
10:56 PM 51.1 °F 44.1 °F 77% 30.14 in 10.0 mi Calm Calm - N/A   Clear
11:56 PM 50.0 °F 44.1 °F 80% 30.16 in 10.0 mi Calm Calm - N/A   Clear